Regional Weather Roundup
Issued by NWS

Home | Current Version | Previous Version | Text Only | Print | Product List | Glossary On
Versions: 1 2 3 4 5 6 7 8 9 10 11 12 13 14 15 16 17 18 19 20 21 22 23 24 25 26 27 28 29 30 31 32 33 34 35 36 37 38 39 40 41 42 43 44 45 46 47 48 49 50
703
ASUS43 KDMX 052208
RWRIA

WEATHER ROUNDUP FOR IOWA
NATIONAL WEATHER SERVICE DES MOINES IA
400 PM CST FRI FEB 05 2016

NOTE: "FAIR" INDICATES FEW OR NO CLOUDS BELOW 12,000 FEET WITH NO
SIGNIFICANT WEATHER AND/OR OBSTRUCTIONS TO VISIBILITY.

* - THESE STATIONS ARE NOT NWS STATIONS...THUS NOT UNDER NWS
QUALITY CONTROL.  THEY ALSO DO NOT REPORT WEATHER SUCH
AS PRECIPITATION OR FOG.

IAZ001>003-012>014-020>022-031>034-043>046-052300-
   NORTHWEST IOWA

CITY           SKY/WX    TMP DP  RH WIND       PRES   REMARKS
CARROLL *      SUNNY     27  27 100 S13       30.24S FOG     WCI  16
CHEROKEE *     CLOUDY    28  25  86 S13       30.20R WCI  18
DENISON *        N/A     28  25  86 S16       30.20S WCI  17
LE MARS *      PTSUNNY   28  28 100 S14       30.19S WCI  17
ORANGE CITY *  CLOUDY    27  25  93 S14       30.17S FOG     WCI  15
SHELDON *      CLOUDY    27  25  93 S14       30.16S FOG     WCI  15
SIOUX CITY     CLOUDY    31  25  78 S10       30.21S WCI  22
SPENCER        CLOUDY    27  21  78 S16       30.19S WCI  15
STORM LAKE *   MOSUNNY   27  27 100 S22       30.19S WCI  12
$$

IAZ055>058-069>071-079>083-090>094-052300-
   SOUTHWEST IOWA

CITY           SKY/WX    TMP DP  RH WIND       PRES   REMARKS
ATLANTIC *     MOSUNNY   28  27  93 S15       30.25S FOG     WCI  17
AUDUBON *      LGT SNOW  28  25  86 S9        30.25S WCI  20
CLARINDA *     CLOUDY    30  28  93 S10       30.29F FOG     WCI  21
COUNCIL BLFS * MOSUNNY   30  28  93 S12       30.23F FOG     WCI  21
CRESTON *      CLOUDY    32  19  59 S15       30.27F WCI  22
HARLAN  *      PTSUNNY   28  27  93 S13       30.27S FOG     WCI  18
LAMONI         CLOUDY    32  22  66 SE8       30.29S WCI  25
RED OAK *      LGT SNOW  30  30 100 S10       30.27S VSB 3/4 WCI  21
SHENANDOAH *   LGT SNOW  32  32 100 S10       30.28S VSB 3/4 WCI  24
$$

IAZ047>049-059>061-072>074-084-052300-
   CENTRAL IOWA

CITY           SKY/WX    TMP DP  RH WIND       PRES   REMARKS
AMES           CLOUDY    27  19  72 S8        30.29F WCI  19
ANKENY *       MOSUNNY   30  21  69 SE8       30.30F WCI  23
BOONE *        CLOUDY    27  19  74 SE10      30.26F WCI  17
CHARITON *     SUNNY     32  19  59 SE8       30.30F WCI  25
DES MOINES     CLOUDY    32  17  54 SE9       30.29F WCI  24
GRINNELL*      CLOUDY    28  19  69 S7        30.31S WCI  21
KNOXVILLE *    CLOUDY    30  18  59 S7        30.30F WCI  23
MARSHALLTOWN   CLOUDY    26  18  71 S10       30.29F WCI  16
NEWTON *       CLOUDY    28  23  80 S8        30.31S WCI  20
PELLA *        MOSUNNY   30  21  69 S6        30.33F WCI  24
$$

IAZ004>006-015-016-023>025-035-036-052300-
   NORTH CENTRAL IOWA

CITY           SKY/WX    TMP DP  RH WIND       PRES   REMARKS
ALGONA *       MOSUNNY   25  21  86 S18       30.22S FOG     WCI  11
CLARION *      PTSUNNY   23  18  80 S14       30.26S WCI  11
ESTHERVILLE    CLOUDY    24  21  88 S21       30.18F FOG     WCI   9
FORT DODGE *   CLOUDY    25  18  74 S10       30.25F WCI  15
MASON CITY     CLOUDY    22  17  81 S9        30.27S WCI  12
FOREST CITY *  CLOUDY    23  19  86 S9        30.24S WCI  13
WEBSTER CITY * MOSUNNY   25  21  86 S13       30.25S HAZE    WCI  13
IOWA FALLS *   CLOUDY    25  19  80 S9        30.29S WCI  15
$$

IAZ007>011-017>019-026>030-037>042-050>054-066-052300-
   NORTHEAST IOWA

CITY           SKY/WX    TMP DP  RH WIND       PRES   REMARKS
CEDAR RAPIDS   CLOUDY    28  21  75 S6        30.32F WCI  22
CHARLES CITY * PTSUNNY   21  18  86 S12       30.29S WCI   9
CLINTON *      PTSUNNY   30  22  72 CALM      30.36F
DECORAH *      SUNNY     23  14  68 S5        30.28F WCI  17
DUBUQUE        CLOUDY    26  18  71 SW6       30.33S WCI  19
MONTICELLO *   SUNNY     28  18  64 CALM      30.34S
OELWEIN *      SUNNY     23  16  74 S7        30.30F WCI  15
WATERLOO       CLOUDY    24  16  71 S7        30.30F WCI  16
$$

IAZ064-065-067-068-078-052300-
   EAST CENTRAL IOWA

CITY           SKY/WX    TMP DP  RH WIND       PRES   REMARKS
DAVENPORT      CLOUDY    29  19  66 CALM      30.36S
IOWA CITY      CLOUDY    29  20  69 CALM      30.37S
MT. PLEASANT * CLOUDY    34  21  60 CALM      30.36S
MUSCATINE *    PTSUNNY   30  21  69 CALM      30.37F
QUAD CITIES    CLOUDY    32  18  56 CALM      30.36S
$$

IAZ062-063-075>077-085>089-095>099-052300-
   SOUTHEAST IOWA

CITY           SKY/WX    TMP DP  RH WIND       PRES   REMARKS
BURLINGTON     PTSUNNY   31  21  66 E5        30.33F WCI  26
FAIRFIELD *    SUNNY     30  18  59 CALM      30.34F
FORT MADISON * SUNNY     30  21  69 CALM      30.36S
KEOKUK *       SUNNY     32  21  64 E5        30.35S WCI  27
OSKALOOSA *    CLOUDY    30  19  64 SE6       30.33S WCI  24
CENTERVILLE *    N/A    N/A N/A N/A MISG        N/A
OTTUMWA        CLOUDY    31  19  61 SE7       30.32F WCI  24
WASHINGTON *   SUNNY     28  21  74 CALM      30.36F
$$

ABBREVIATIONS USED IN REMARKS
   TC - TEMPERATURES IN CELSIUS
  WCI - WIND CHILL INDEX
   HX - HEAT INDEX
  VSB - VISIBILITY
$$





USA.gov is the U.S. government's official web portal to all federal, state and local government web resources and services.